This demonstration page uses our WeatherBlox Daily Observations layout. Learn more.

Left ArrowRight Arrow

Hourly Observations for March 21, 2018

Temp ( °F °C ) Dew Point ( °F °C ) Humidity (%) Winds ( mph kmh ) Pressure ( in mb ) Visibility ( mi km ) Precip ( " mm )
12:35 am 00:35 Cloudy with Mist and Fog 40 4.4 37 2.8 89 89 NNE 15 24 29.59 1002 3 4 0.00 0.00
12:59 am 00:59 Cloudy with Mist and Fog 40 4.4 37 2.8 89 89 NNE 13 20 29.60 1002 3 4 0.00 0.00
1:49 am 01:49 Cloudy with Mist and Fog 40 4.4 37 2.8 89 89 N 18 30 29.59 1002 2 3 0.00 0.00
1:59 am 01:59 Cloudy with Light Rain 40 4.4 37 2.8 89 89 N 18 30 29.56 1001 2 3 0.00 0.03
2:21 am 02:21 Cloudy with Light Rain 40 4.4 37 2.8 89 89 N 17 28 29.59 1002 2 3 0.01 0.25
2:59 am 02:59 Cloudy with Light Rain 39 3.9 37 2.8 93 93 NNW 18 30 29.59 1002 2 3 0.02 0.51
3:15 am 03:15 Cloudy with Light Rain 39 3.9 36 2.2 89 89 N 12 19 29.56 1001 3 5 0.00 0.03
3:59 am 03:59 Cloudy with Light Rain 39 3.9 36 2.2 89 89 NNE 17 28 29.51 999 6 10 0.03 0.76
4:59 am 04:59 Cloudy 39 3.9 36 2.2 89 89 N 17 28 29.52 1000 10 16 0.00 0.03
5:14 am 05:14 Cloudy 39 3.9 36 2.2 89 89 NNE 18 30 29.50 999 10 16 0.00 0.00
5:29 am 05:29 Cloudy 39 3.9 36 2.2 89 89 N 17 28 29.53 1000 10 16 0.00 0.00
5:59 am 05:59 Cloudy 40 4.4 36 2.2 86 86 NNE 17 28 29.52 1000 10 16 0.00 0.00
6:48 am 06:48 Cloudy with Mist and Fog 39 3.9 37 2.8 93 93 N 12 19 29.53 1000 3 4 0.00 0.00
6:59 am 06:59 Cloudy with Mist and Fog 39 3.9 37 2.8 93 93 N 13 20 29.54 1000 2 3 0.00 0.00
7:22 am 07:22 Cloudy with Light Snow 38 3.3 36 2.2 93 93 NNW 10 17 29.56 1001 2 3 0.00 0.03
7:32 am 07:32 Cloudy with Light Rain 38 3.3 36 2.2 93 93 NNW 13 20 29.56 1001 2 3 0.01 0.25
7:59 am 07:59 Cloudy with Light Rain 38 3.3 36 2.2 93 93 NW 12 19 29.57 1001 2 3 0.01 0.25
8:34 am 08:34 Cloudy with Light Rain 37 2.8 35 1.7 93 93 WNW 10 17 29.56 1001 3 5 0.01 0.25
8:52 am 08:52 Cloudy with Light Rain 37 2.8 35 1.7 93 93 WNW 12 19 29.59 1002 3 5 0.01 0.25
8:59 am 08:59 Cloudy with Light Rain 37 2.8 35 1.7 93 93 WNW 10 17 29.57 1002 3 5 0.01 0.25
9:59 am 09:59 Cloudy with Light Rain 37 2.8 35 1.7 93 93 WNW 14 22 29.58 1002 3 5 0.00 0.03
10:59 am 10:59 Cloudy with Light Rain 37 2.8 35 1.7 93 93 WNW 13 20 29.58 1002 5 8 0.01 0.25
11:59 am 11:59 Cloudy with Mist and Fog 38 3.3 35 1.7 89 89 WNW 10 17 29.59 1002 3 5 0.01 0.25
12:59 pm 12:59 Cloudy with Light Rain 38 3.3 36 2.2 93 93 NW 12 19 29.59 1002 4 6 0.00 0.03
1:31 pm 13:31 Cloudy with Light Rain 38 3.3 35 1.7 89 89 NW 13 20 29.59 1002 5 8 0.00 0.03
1:59 pm 13:59 Cloudy with Light Rain 38 3.3 35 1.7 89 89 WNW 13 20 29.59 1002 5 8 0.01 0.25
2:23 pm 14:23 Cloudy with Light Rain 38 3.3 35 1.7 89 89 NW 13 20 29.59 1002 5 8 0.00 0.03
2:40 pm 14:40 Cloudy with Light Rain 38 3.3 34 1.1 86 86 WNW 10 17 29.59 1002 5 8 0.01 0.25
2:55 pm 14:55 Cloudy with Light Rain/Snow 37 3 34 1 87 87 WNW 14 22 29.59 1002 5 8 0.02 0.51
2:59 pm 14:59 Cloudy with Light Rain/Snow 37 2.8 34 1.1 89 89 WNW 14 22 29.59 1002 6 10 0.02 0.51
3:09 pm 15:09 Cloudy with Light Rain/Snow 37 2.8 34 1.1 89 89 NW 15 24 29.59 1002 5 8 0.01 0.25
3:19 pm 15:19 Cloudy with Light Rain 37 2.8 34 1.1 89 89 WNW 14 22 29.59 1002 5 8 0.01 0.25
3:37 pm 15:37 Cloudy with Light Rain 37 2.8 34 1.1 89 89 WNW 12 19 29.59 1002 5 8 0.02 0.51
3:59 pm 15:59 Cloudy with Light Rain 36 2.2 33 0.6 89 89 WNW 16 26 29.60 1003 5 8 0.03 0.76
4:08 pm 16:08 Cloudy with Light Rain 37 2.8 34 1.1 89 89 WNW 13 20 29.62 1003 5 8 0.00 0.03
4:41 pm 16:41 Cloudy 37 2.8 34 1.1 89 89 WNW 17 28 29.62 1003 9 14 0.00 0.03
4:59 pm 16:59 Cloudy 37 2.8 33 0.6 86 86 NW 16 26 29.63 1003 10 16 0.00 0.03
5:41 pm 17:41 Cloudy 37 2.8 33 0.6 86 86 WNW 17 28 29.65 1004 9 14 0.00 0.00
5:59 pm 17:59 Cloudy 36 2.2 32 0 86 86 NW 16 26 29.67 1005 8 13 0.00 0.00
6:59 pm 18:59 Cloudy 36 2.2 31 -0.6 82 82 NW 18 30 29.70 1006 10 16 0.00 0.00
7:52 pm 19:52 Cloudy 36 2.2 32 0 86 86 NW 16 26 29.71 1006 8 13 0.00 0.00
7:59 pm 19:59 Cloudy 36 2.2 32 0 86 86 WNW 17 28 29.73 1007 9 14 0.00 0.00
8:59 pm 20:59 Cloudy 36 2.2 32 0 86 86 NW 18 30 29.76 1008 10 16 0.00 0.00
9:59 pm 21:59 Cloudy 36 2.2 32 0 86 86 NW 15 24 29.79 1009 9 14 0.00 0.00
10:59 pm 22:59 Cloudy with Mist and Fog 36 2.2 32 0 86 86 NW 16 26 29.80 1009 6 10 0.00 0.00
11:59 pm 23:59 Cloudy 36 2.2 32 0 86 86 NW 17 28 29.82 1010 10 16 0.00 0.00

Powered by AerisWeather